Weather History for Plymouth, MA

Change the Weather History Date:

Saturday, May 11, 2013

  Actual Average Record
Temperature  
Mean Temperature 64 °F -  
Max Temperature 70 °F 65 °F 93 °F (1979)
Min Temperature 57 °F 43 °F 29 °F (1966)
Degree Days  
Heating Degree Days 2    
Growing Degree Days 14 (Base 50)    
Moisture  
Dew Point 57 °F    
Average Humidity 84    
Maximum Humidity 94    
Minimum Humidity 63    
Precipitation  
Precipitation 0.65 in - - ()
Sea Level Pressure  
Sea Level Pressure 29.82 in    
Wind  
Wind Speed 8 mph (SSW)    
Max Wind Speed 24 mph    
Max Gust Speed 33 mph    
Visibility 8 miles    
Events Rain , Thunderstorm    
Averages and records for this station are not official NWS values.
T = Trace of Precipitation, MM = Missing Value Source: NWS Daily Summary

Daily Weather History Graph

Daily Weather History Graph

Search for Another Location

Airport:

Trip Planner

Search our weather history database for the weather conditions in past years. The results will help you decide how hot, cold, wet, or windy it might be!

Date:

Astronomy

May. 11, 2013 Rise Set
Actual Time 5:26 AM EDT 7:52 PM EDT
Civil Twilight 4:55 AM EDT 8:24 PM EDT
Nautical Twilight 4:16 AM EDT 9:03 PM EDT
Astronomical Twilight 3:32 AM EDT 9:47 PM EDT
Moon 6:31 AM EDT (5/11) 9:30 PM EDT (5/11)
Length of Visible Light 15h 28m
Length of Day
14h 25m
Waxing Crescent, 3% of the Moon is Illuminated
May 11
Waxing Crescent
May 18
First Quarter
May 25
Full
May 31
Last Quarter
Jun 8
New

Hourly Weather History & Observations

Time (EDT) Temp. Dew Point Humidity Pressure Visibility Wind Dir Wind Speed Gust Speed Precip Events Conditions
12:52 AM 57.9 °F 52.0 °F 81% 29.95 in 10.0 mi South 4.6 mph - N/A   Clear
1:52 AM 57.9 °F 53.1 °F 84% 29.93 in 9.0 mi SSW 3.5 mph - N/A   Clear
2:15 AM 57.2 °F 53.6 °F 88% 29.92 in 8.0 mi South 4.6 mph - N/A   Scattered Clouds
2:26 AM 57.2 °F 53.6 °F 88% 29.92 in 6.0 mi South 4.6 mph - N/A   Mostly Cloudy
2:52 AM 57.9 °F 55.0 °F 90% 29.91 in 2.0 mi South 5.8 mph - N/A   Overcast
3:11 AM 59.0 °F 55.4 °F 88% 29.90 in 3.0 mi South 8.1 mph - N/A   Overcast
3:52 AM 57.9 °F 55.0 °F 90% 29.89 in 5.0 mi Variable 4.6 mph - N/A   Mostly Cloudy
4:52 AM 57.0 °F 54.0 °F 89% 29.87 in 4.0 mi South 6.9 mph - N/A   Overcast
5:52 AM 57.9 °F 55.0 °F 90% 29.89 in 7.0 mi SSW 11.5 mph 19.6 mph N/A   Mostly Cloudy
6:11 AM 59.0 °F 53.6 °F 82% 29.89 in 10.0 mi SSW 10.4 mph 19.6 mph N/A   Overcast
6:32 AM 59.0 °F 55.4 °F 88% 29.85 in 10.0 mi South 5.8 mph - N/A   Mostly Cloudy
6:52 AM 59.0 °F 54.0 °F 83% 29.86 in 10.0 mi Variable 5.8 mph - N/A   Mostly Cloudy
7:52 AM 60.1 °F 55.0 °F 83% 29.86 in 8.0 mi South 5.8 mph - 0.01 in Rain Light Rain
8:37 AM 60.8 °F 55.4 °F 82% 29.86 in 10.0 mi SSW 8.1 mph - 0.00 in   Overcast
8:52 AM 61.0 °F 55.9 °F 83% 29.85 in 10.0 mi SSW 9.2 mph - 0.00 in   Mostly Cloudy
9:52 AM 64.0 °F 57.0 °F 78% 29.83 in 10.0 mi SSW 6.9 mph - 0.00 in Rain Light Rain
10:52 AM 66.9 °F 55.9 °F 68% 29.84 in 10.0 mi SSW 16.1 mph 23.0 mph 0.00 in   Overcast
11:52 AM 68.0 °F 57.0 °F 68% 29.84 in 10.0 mi SW 24.2 mph 33.4 mph N/A   Mostly Cloudy
12:52 PM 70.0 °F 57.0 °F 63% 29.82 in 10.0 mi SSW 10.4 mph 24.2 mph N/A   Overcast
1:52 PM 64.0 °F 57.0 °F 78% 29.83 in 10.0 mi SW 21.9 mph 27.6 mph 0.03 in   Overcast
2:15 PM 64.4 °F 57.2 °F 77% 29.82 in 10.0 mi SW 18.4 mph 26.5 mph 0.00 in   Overcast
2:52 PM 64.0 °F 57.0 °F 78% 29.82 in 10.0 mi SSW 16.1 mph 26.5 mph 0.00 in Rain Light Rain
3:01 PM 62.6 °F 57.2 °F 82% 29.82 in 10.0 mi SW 19.6 mph 28.8 mph 0.00 in Rain Light Rain
3:27 PM 62.6 °F 57.2 °F 82% 29.80 in 10.0 mi SSW 10.4 mph 20.7 mph 0.00 in   Overcast
3:52 PM 62.1 °F 57.0 °F 84% 29.79 in 10.0 mi SSW 10.4 mph 20.7 mph 0.00 in   Mostly Cloudy
4:14 PM 62.6 °F 57.2 °F 82% 29.80 in 10.0 mi SSW 12.7 mph 25.3 mph 0.00 in Rain Light Rain
4:52 PM 62.1 °F 57.9 °F 86% 29.78 in 10.0 mi South 9.2 mph - 0.01 in Rain Light Rain
5:05 PM 62.6 °F 57.2 °F 82% 29.77 in 10.0 mi SSW 10.4 mph 17.3 mph N/A   Mostly Cloudy
5:20 PM 62.6 °F 57.2 °F 82% 29.77 in 10.0 mi SSW 9.2 mph - 0.00 in Rain Light Rain
5:52 PM 63.0 °F 57.9 °F 84% 29.78 in 10.0 mi South 10.4 mph 19.6 mph 0.00 in   Mostly Cloudy
6:01 PM 62.6 °F 57.2 °F 82% 29.78 in 10.0 mi SSW 9.2 mph 18.4 mph N/A   Mostly Cloudy
6:09 PM 62.6 °F 57.2 °F 82% 29.78 in 10.0 mi SSW 11.5 mph 17.3 mph N/A   Mostly Cloudy
6:13 PM 62.6 °F 57.2 °F 82% 29.78 in 10.0 mi SSW 11.5 mph 20.7 mph N/A   Mostly Cloudy
6:32 PM 62.6 °F 57.2 °F 82% 29.79 in 10.0 mi SSW 12.7 mph 18.4 mph N/A   Overcast
6:52 PM 63.0 °F 57.9 °F 84% 29.79 in 10.0 mi SSW 9.2 mph - N/A   Mostly Cloudy
7:52 PM 61.0 °F 57.0 °F 87% 29.78 in 10.0 mi SSW 5.8 mph - 0.02 in Rain Light Rain
8:05 PM 60.8 °F 57.2 °F 88% 29.77 in 4.0 mi South 6.9 mph - 0.03 in Rain , Thunderstorm Light Rain
8:12 PM 60.8 °F 57.2 °F 88% 29.77 in 1.8 mi South 4.6 mph - 0.15 in Rain , Thunderstorm Heavy Rain
8:35 PM 62.6 °F 59.0 °F 88% 29.76 in 2.0 mi South 3.5 mph - 0.52 in Rain , Thunderstorm Thunderstorms and Rain
8:41 PM 60.8 °F 59.0 °F 94% 29.76 in 5.0 mi Variable 5.8 mph - 0.52 in Rain , Thunderstorm Light Thunderstorms and Rain
8:52 PM 62.1 °F 59.0 °F 90% 29.76 in 4.0 mi South 8.1 mph - 0.56 in Rain , Thunderstorm Light Rain
9:01 PM 62.6 °F 59.0 °F 88% 29.76 in 6.0 mi South 8.1 mph - 0.01 in Rain , Thunderstorm Light Rain
9:09 PM 62.6 °F 59.0 °F 88% 29.77 in 10.0 mi SSW 8.1 mph - 0.01 in   Overcast
9:52 PM 62.1 °F 59.0 °F 90% 29.76 in 10.0 mi South 5.8 mph - 0.01 in   Overcast
10:25 PM 62.6 °F 59.0 °F 88% 29.75 in 10.0 mi SSW 8.1 mph 20.7 mph N/A Thunderstorm Overcast
10:40 PM 62.6 °F 59.0 °F 88% 29.74 in 10.0 mi SSW 10.4 mph 17.3 mph 0.00 in Rain Light Rain
10:52 PM 63.0 °F 59.0 °F 87% 29.74 in 10.0 mi SSW 9.2 mph - 0.00 in   Overcast
11:52 PM 62.1 °F 59.0 °F 90% 29.72 in 10.0 mi SSW 8.1 mph - 0.01 in   Overcast